Location: Carrizalito
(10.3833°N, 67.0217°W)
Time: 19:58:12
(UTC+00:00)

Cosmos 1707 Rocket - Pass Details

Date: 08 December 2021
Orbit: 605 x 630 km, 82.5° (Epoch: 17 January)

Event Time Altitude Azimuth Distance (km) Brightness Sun altitude
Rises 23:25:25 0° 183° (S) 2,850 7.3 -18.9°
Reaches altitude 10° 23:27:37 10° 182° (S) 1,947 6.4 -19.4°
Maximum altitude 23:31:55 85° 96° (E) 611 3.4 -20.4°
Enters shadow 23:33:53 32° 7° (N) 1,039 4.4 -20.9°
